INNOSAT 3 (RS92S0)

Last updated on Sat Sep 05 2026 00:03:18 GMT+0000 (Coordinated Universal Time)

1 64894U 25155U 26247.62980795 .00031928 00000+0 57567-3 0 9991 2 64894 97.4554 221.4009 0001758 197.4380 162.6811 15.49714373 93245
UTC large
Height (km)
Speed (km/s)
/
Latitude / Longitude
Inclination (degrees)
Orbital Period (minutes)
Azimuth
Elevation
Range (km)
Doppler Factor

Next 0 passes for location: London (51.5072 / 0.1276)

No passes found over London.
INNOSAT 3 (RS92S0)